Waarnemingen

Advertentie
Mijn weer
Konstanz, Duitsland (10929): temperatuur & dauwpunt: 15.08.2017 11:00:00 - 21.08.2017 11:00:00 (CEST)Konstanz, Duitsland (10929): temperatuur 5cm & temperatuur -5cm: 15.08.2017 11:00:00 - 21.08.2017 11:00:00 (CEST)Konstanz, Duitsland (10929): temperatuur -20cm & temperatuur -100cm: 15.08.2017 11:00:00 - 21.08.2017 11:00:00 (CEST)Konstanz, Duitsland (10929): windsnelheid & windstoten: 15.08.2017 11:00:00 - 21.08.2017 11:00:00 (CEST)Konstanz, Duitsland (10929): windrichting: 15.08.2017 11:00:00 - 21.08.2017 11:00:00 (CEST)Konstanz, Duitsland (10929): luchtdruk: 15.08.2017 11:00:00 - 21.08.2017 11:00:00 (CEST)Konstanz, Duitsland (10929): zicht: 15.08.2017 11:00:00 - 21.08.2017 11:00:00 (CEST)Konstanz, Duitsland (10929): Zonneschijnduur: 15.08.2017 11:00:00 - 21.08.2017 11:00:00 (CEST)Konstanz, Duitsland (10929): neerslag: 15.08.2017 11:00:00 - 21.08.2017 11:00:00 (CEST)
Datum & Tijd tt [°C] td [°C] tt 5cm [°C] tt -5cm [°C] tt -20cm [°C] tt -100cm [°C] ff [km/u] ff [kn] fx [km/u] fx [kn] dd ppp [hPa] vv [km] sd [min] rr [mm]
21.08.2017 11:00:00 16,0 9,5 17,9 17,9 18,6 20,5 5 3 9 5 ONO 1024,3 40 1 0,0
21.08.2017 10:00:00 15,2 10,2 16,0 16,8 18,5 20,5 3 2 8 5 NNO 1024,6 40 0 0,0
21.08.2017 09:00:00 14,4 10,0 14,8 16,1 18,6 20,5 7 4 10 5 N 1024,7 40 1 0,0
21.08.2017 08:00:00 13,1 9,9 13,2 15,4 18,8 20,5 5 3 12 6 NW 1024,6 35 0 0,0
21.08.2017 07:00:00 12,6 10,0 12,2 15,2 19,0 20,5 8 4 12 7 NNW 1024,7 30 0 0,0
21.08.2017 06:00:00 12,7 9,9 11,6 15,5 19,3 20,5 8 4 10 5 NW 1024,6 22 0 0,0
21.08.2017 05:00:00 13,3 9,8 12,7 15,8 19,6 20,5 6 4 11 6 WNW 1024,5 70 0 0,0
21.08.2017 04:00:00 13,3 9,2 11,4 16,1 19,9 20,5 6 3 8 4 WNW 1025,0 70 0 0,0
21.08.2017 03:00:00 13,5 9,4 12,0 16,4 20,3 20,5 5 3 6 3 N 1025,2 70 0 0,0
21.08.2017 02:00:00 13,3 9,6 11,0 16,9 20,6 20,5 4 2 9 5 NW 1025,1 70 0 0,0
21.08.2017 01:00:00 14,6 9,2 12,9 17,4 21,0 20,6 6 3 13 7 N 1025,1 70 0 0,0
21.08.2017 00:00:00 15,0 9,7 12,9 18,1 21,4 20,6 5 3 10 5 N 1024,9 70 0 0,0
20.08.2017 23:00:00 15,6 10,0 13,7 18,9 21,8 20,6 6 4 11 6 W 1024,6 70 0 0,0
20.08.2017 22:00:00 17,0 9,7 15,2 19,8 22,2 20,6 6 3 11 6 N 1024,1 70 0 0,0
20.08.2017 21:00:00 17,9 9,9 16,7 20,7 22,5 20,6 0 0 4 2 N 1023,6 70 0 0,0
20.08.2017 20:00:00 18,7 9,2 17,4 21,8 22,8 20,6 0 0 10 5 N 1023,0 70 7 0,0
20.08.2017 19:00:00 20,9 8,1 20,6 23,2 22,8 20,6 5 3 13 7 N 1022,5 70 48 0,0
20.08.2017 18:00:00 20,2 9,7 20,2 24,0 22,8 20,6 4 2 10 5 ONO 1022,9 70 16 0,0
20.08.2017 17:00:00 21,0 7,4 22,3 25,5 22,4 20,6 7 4 14 7 NNO 1022,8 60 55 0,0
20.08.2017 16:00:00 21,2 8,3 23,7 25,3 21,9 20,6 8 4 16 9 O 1022,6 60 49 0,0
20.08.2017 15:00:00 20,9 6,3 24,5 25,1 21,3 20,6 8 4 17 9 WNW 1022,8 60 60 0,0
20.08.2017 14:00:00 19,6 7,8 20,9 24,2 20,6 20,6 7 4 14 7 O 1023,4 60 56 0,0
20.08.2017 13:00:00 19,8 6,8 23,7 22,8 20,0 20,6 5 3 19 10 W 1023,7 60 58 0,0
20.08.2017 12:00:00 19,0 8,8 20,9 20,9 19,5 20,6 3 2 13 7 O 1024,1 60 51 0,0
20.08.2017 11:00:00 18,1 8,1 19,8 19,3 19,2 20,6 8 5 14 8 NO 1024,1 60 60 0,0
20.08.2017 10:00:00 17,6 9,4 18,9 17,2 19,1 20,6 8 5 12 7 N 1024,1 60 60 0,0
20.08.2017 09:00:00 15,5 10,0 14,7 16,0 19,3 20,6 6 3 11 6 NW 1024,2 60 60 0,0
20.08.2017 08:00:00 14,0 10,4 13,3 15,8 19,6 20,6 6 3 9 5 NW 1024,2 60 47 0,0
20.08.2017 07:00:00 12,9 9,1 11,2 16,0 19,8 20,6 6 3 8 5 W 1023,8 60 5 0,0
20.08.2017 06:00:00 13,2 8,9 11,9 16,4 20,1 20,6 3 2 7 4 NNW 1023,7 60 0 0,0
20.08.2017 05:00:00 14,0 8,5 12,4 16,8 20,4 20,6 5 3 9 5 WNW 1023,3 70 0 0,0
20.08.2017 04:00:00 14,2 9,4 13,8 17,0 20,7 20,6 6 4 11 6 NW 1022,9 70 0 0,0
20.08.2017 03:00:00 14,6 9,0 14,0 17,3 21,0 20,6 6 4 11 6 NW 1022,7 70 0 0,0
20.08.2017 02:00:00 14,9 10,1 14,2 17,8 21,4 20,6 7 4 10 5 WNW 1022,5 70 0 0,0
20.08.2017 01:00:00 15,5 9,7 14,7 18,2 21,7 20,6 6 3 17 9 WNW 1022,6 70 0 0,0
20.08.2017 00:00:00 16,1 9,6 15,5 18,7 22,1 20,6 9 5 16 8 NNW 1022,6 70 0 0,0
19.08.2017 23:00:00 16,5 10,3 15,8 19,3 22,6 20,6 8 5 16 9 WNW 1022,0 70 0 0,0
19.08.2017 22:00:00 17,5 9,2 16,7 20,1 23,0 20,6 10 5 18 10 NNW 1021,3 70 0 0,0
19.08.2017 21:00:00 18,0 11,1 17,0 21,3 23,3 20,6 9 5 16 8 NNW 1020,2 70 7 0,0
19.08.2017 20:00:00 19,6 12,0 19,2 22,8 23,5 20,6 8 4 14 8 N 1019,2 70 3 0,0
19.08.2017 19:00:00 20,5 12,4 20,4 24,1 23,5 20,6 4 2 12 6 NO 1018,6 70 11 0,0
19.08.2017 18:00:00 21,1 12,8 21,9 25,4 23,2 20,6 7 4 16 9 OZO 1018,6 70 41 0,0
19.08.2017 17:00:00 21,3 12,1 21,9 25,8 22,8 20,6 7 4 14 8 O 1018,4 45 48 0,0
19.08.2017 16:00:00 22,7 12,7 26,7 24,8 22,4 20,6 9 5 19 10 ZZW 1018,3 45 34 0,0
19.08.2017 15:00:00 21,0 11,1 25,1 23,9 22,0 20,6 6 3 14 8 NW 1019,0 45 34 0,0
19.08.2017 14:00:00 19,4 11,7 20,5 23,2 21,6 20,5 10 5 18 10 N 1019,4 45 20 0,0
19.08.2017 13:00:00 19,4 13,7 21,8 22,1 21,2 20,5 6 3 16 8 NO 1019,5 40 37 0,1
19.08.2017 12:00:00 16,7 14,1 16,5 20,3 21,1 20,5 10 5 18 10 NW 1020,2 20 1 0,3
19.08.2017 11:00:00 17,8 12,8 17,9 19,7 21,1 20,5 6 3 20 11 W 1019,8 25 0 0,0
19.08.2017 10:00:00 17,1 13,4 17,4 18,8 21,2 20,5 8 4 21 11 NW 1020,0 45 0 0,0
19.08.2017 09:00:00 16,6 13,0 16,8 18,4 21,4 20,5 11 6 24 13 W 1019,8 45 0 0,0
19.08.2017 08:00:00 15,9 13,1 15,6 18,2 21,7 20,5 11 6 21 11 WZW 1019,3 45 0 0,0
19.08.2017 07:00:00 15,9 13,1 15,2 18,5 22,0 20,5 13 7 21 11 WZW 1018,9 45 0 0,0
19.08.2017 06:00:00 15,9 13,5 15,1 18,9 22,4 20,4 11 6 19 10 WZW 1018,8 40 0 0,0
19.08.2017 05:00:00 16,3 13,9 16,0 19,4 22,7 20,4 9 5 18 10 WZW 1018,4 70 0 0,0
19.08.2017 04:00:00 16,4 14,3 16,3 19,8 23,0 20,4 6 4 19 11 WZW 1018,2 70 0 0,0
19.08.2017 03:00:00 16,8 13,8 16,7 20,1 23,4 20,4 8 4 22 12 WZW 1018,3 70 0 0,0
19.08.2017 02:00:00 16,7 14,3 16,8 20,4 23,8 20,4 10 6 21 12 W 1018,1 70 0 0,0
19.08.2017 01:00:00 17,2 14,6 17,1 20,8 24,2 20,4 12 7 23 13 W 1018,3 70 0 0,0
19.08.2017 00:00:00 17,4 14,9 17,1 21,4 24,7 20,4 14 8 30 16 WZW 1018,2 70 0 0,0
18.08.2017 23:00:00 17,6 15,7 17,5 21,9 25,3 20,4 11 6 26 14 W 1018,3 70 0 0,0
18.08.2017 22:00:00 17,4 15,5 17,4 22,6 25,9 20,3 13 7 23 13 W 1017,5 70 0 0,5
18.08.2017 21:00:00 17,6 16,2 17,5 23,8 26,6 20,3 17 9 40 22 ZZW 1017,7 31 0 2,2
18.08.2017 20:00:00 17,8 16,1 17,4 26,2 26,9 20,3 21 11 67 36 NW 1016,0 14 0 10,4
18.08.2017 19:00:00 25,9 16,7 25,9 30,0 26,8 20,3 18 10 31 17 WNW 1009,6 70 10 0,0
18.08.2017 18:00:00 29,1 17,5 30,6 32,1 26,4 20,3 5 3 9 5 ZZO 1008,9 55 60 0,0
18.08.2017 17:00:00 28,8 18,6 30,5 32,2 25,8 20,3 9 5 15 8 O 1009,5 40 60 0,0
18.08.2017 16:00:00 28,8 18,3 32,2 31,9 25,1 20,3 8 5 16 9 OZO 1010,5 40 60 0,0
18.08.2017 15:00:00 27,8 19,0 31,3 30,9 24,3 20,3 6 4 13 7 OZO 1011,6 40 60 0,0
18.08.2017 14:00:00 28,5 17,9 32,0 29,2 23,6 20,2 7 4 12 6 O 1012,4 30 60 0,0
18.08.2017 13:00:00 26,9 16,9 30,9 27,6 22,9 20,2 8 4 13 7 O 1013,5 30 60 0,0
18.08.2017 12:00:00 25,4 18,4 28,0 26,0 22,4 20,2 6 3 12 6 ONO 1014,7 28 57 0,0
18.08.2017 11:00:00 24,9 18,7 27,3 24,3 21,9 20,2 5 3 10 6 O 1015,4 23 60 0,0
18.08.2017 10:00:00 23,1 18,2 25,4 21,9 21,8 20,2 6 3 11 6 OZO 1015,8 20 57 0,0
18.08.2017 09:00:00 21,4 17,7 19,9 20,5 21,9 20,2 3 2 7 4 NO 1016,4 18 50 0,0
18.08.2017 08:00:00 19,3 17,4 18,6 20,2 22,0 20,2 3 2 8 5 NW 1017,1 17 7 0,0
18.08.2017 07:00:00 18,7 17,4 18,2 20,2 22,2 20,2 4 2 9 5 WNW 1017,5 12 0 0,0
18.08.2017 06:00:00 18,4 17,4 17,5 20,3 22,5 20,1 5 3 8 4 N 1017,4 12 0 0,0
18.08.2017 05:00:00 18,9 17,5 17,7 20,8 22,7 20,1 2 1 4 2 O 1017,3 25 0 0,0
18.08.2017 04:00:00 19,2 17,7 18,4 20,9 22,9 20,1 0 0 3 2 N 1017,8 30 0 0,0
18.08.2017 03:00:00 19,7 17,9 18,4 21,3 23,2 20,1 3 2 5 3 N 1017,9 33 0 0,0
18.08.2017 02:00:00 20,4 18,1 18,8 21,5 23,5 20,1 5 3 8 4 WNW 1017,7 36 0 0,0
18.08.2017 01:00:00 20,2 17,5 18,6 21,8 23,8 20,1 3 2 8 5 N 1017,9 44 0 0,0
18.08.2017 00:00:00 21,0 17,3 19,1 22,3 24,2 20,1 4 2 6 3 N 1017,6 52 0 0,0
17.08.2017 23:00:00 22,4 16,7 19,9 23,0 24,5 20,1 5 3 10 6 W 1017,2 51 0 0,0
17.08.2017 22:00:00 23,2 16,7 20,8 23,7 24,9 20,1 7 4 9 5 WZW 1017,2 53 0 0,0
17.08.2017 21:00:00 24,3 16,7 21,7 24,7 25,2 20,1 5 3 16 8 WNW 1017,2 52 18 0,0
17.08.2017 20:00:00 26,3 16,3 24,6 26,1 25,4 20,1 8 5 23 13 W 1016,8 60 60 0,0
17.08.2017 19:00:00 27,2 15,9 27,7 27,3 25,4 20,1 11 6 24 13 W 1016,4 63 58 0,0
17.08.2017 18:00:00 27,9 15,4 29,5 28,3 25,3 20,0 11 6 26 14 W 1016,2 50 59 0,0
17.08.2017 17:00:00 27,9 14,9 29,8 29,2 25,0 20,0 16 9 24 13 WNW 1016,2 35 60 0,0
17.08.2017 16:00:00 28,0 14,9 31,6 29,5 24,5 20,0 9 5 21 11 WNW 1016,2 35 60 0,0
17.08.2017 15:00:00 27,8 16,5 30,9 29,1 23,9 20,0 8 5 14 8 ZW 1016,7 35 60 0,0
17.08.2017 14:00:00 26,6 19,1 28,9 28,2 23,3 20,0 5 3 10 6 ONO 1017,3 30 52 0,0
17.08.2017 13:00:00 25,9 18,6 29,3 27,3 22,6 20,0 7 4 13 7 O 1017,6 30 60 0,0
17.08.2017 12:00:00 24,6 17,5 26,8 25,7 22,0 20,0 6 3 12 7 ZO 1018,2 28 60 0,0
17.08.2017 11:00:00 23,4 18,3 25,4 23,7 21,5 20,0 6 3 10 5 O 1018,9 25 60 0,0
17.08.2017 10:00:00 22,0 17,0 23,0 21,6 21,4 20,0 4 2 9 5 ZZO 1019,1 18 42 0,0
17.08.2017 09:00:00 19,5 17,0 19,1 20,4 21,4 19,9 6 3 9 5 W 1019,6 12 20 0,0
17.08.2017 08:00:00 18,6 17,7 18,5 19,7 21,6 19,9 6 3 9 5 NW 1019,4 8 2 0,0
17.08.2017 07:00:00 17,8 17,0 16,9 19,6 21,8 19,9 0 0 6 3 N 1019,2 16 0 0,0
17.08.2017 06:00:00 18,4 17,5 17,4 20,0 22,1 19,9 3 2 5 3 ZZO 1018,6 14 0 0,0
17.08.2017 05:00:00 18,3 17,5 17,2 20,3 22,3 19,9 4 2 8 4 NNO 1018,8 12 0 0,0
17.08.2017 04:00:00 18,9 17,9 18,3 20,5 22,6 19,9 5 3 11 6 NW 1018,9 19 0 0,0
17.08.2017 03:00:00 18,9 18,1 17,7 21,0 22,9 19,9 3 2 7 4 N 1018,7 22 0 0,0
17.08.2017 02:00:00 19,6 18,6 18,9 21,5 23,1 19,8 4 2 7 4 Z 1019,0 20 0 0,1
17.08.2017 01:00:00 20,0 17,9 19,7 21,7 23,4 19,8 5 3 11 6 NW 1019,5 36 0 0,0
17.08.2017 00:00:00 20,3 18,0 19,8 21,9 23,8 19,8 5 3 9 5 NNO 1019,2 43 0 0,0
16.08.2017 23:00:00 20,2 17,7 18,8 22,4 24,2 19,8 6 3 8 5 NO 1019,3 42 0 0,0
16.08.2017 22:00:00 21,8 16,6 20,0 23,2 24,5 19,8 5 3 7 4 ZO 1019,1 66 0 0,0
16.08.2017 21:00:00 22,6 15,8 21,5 24,2 24,8 19,8 4 2 10 5 ZO 1018,9 70 0 0,0
16.08.2017 20:00:00 23,3 16,6 22,4 25,5 25,0 19,8 4 2 8 5 OZO 1018,4 70 0 0,0
16.08.2017 19:00:00 24,6 16,6 24,4 26,5 25,1 19,8 5 3 9 5 ZO 1018,1 70 7 0,0
16.08.2017 18:00:00 24,7 17,0 24,8 27,6 25,0 19,8 5 3 12 6 O 1018,3 70 28 0,0
16.08.2017 17:00:00 25,5 16,3 27,1 28,6 24,7 19,8 8 4 16 8 O 1018,3 35 60 0,0
16.08.2017 16:00:00 25,6 16,3 27,3 29,1 24,2 19,7 9 5 15 8 O 1018,5 45 59 0,0
16.08.2017 15:00:00 25,7 16,8 27,9 28,7 23,6 19,7 5 3 13 7 NO 1018,9 45 60 0,0
16.08.2017 14:00:00 25,1 16,9 27,6 27,7 23,0 19,7 7 4 14 8 O 1019,3 40 60 0,0
16.08.2017 13:00:00 23,9 15,6 26,8 26,6 22,4 19,7 8 5 15 8 ONO 1020,0 40 60 0,0
16.08.2017 12:00:00 22,2 16,1 24,7 25,1 21,8 19,7 7 4 13 7 OZO 1020,8 35 60 0,0
16.08.2017 11:00:00 21,9 16,4 24,5 23,0 21,4 19,7 5 3 11 6 NO 1021,3 30 44 0,0
16.08.2017 10:00:00 20,6 17,4 24,0 21,4 21,3 19,6 4 2 9 5 N 1021,4 25 34 0,0
16.08.2017 09:00:00 18,7 16,5 18,5 20,1 21,3 19,6 3 2 8 4 N 1022,1 23 10 0,0
16.08.2017 08:00:00 17,8 17,0 17,9 19,6 21,5 19,6 5 3 7 4 N 1022,0 20 0 0,0
16.08.2017 07:00:00 17,2 16,4 17,0 19,6 21,7 19,6 4 2 5 3 NNO 1021,7 23 0 0,0
16.08.2017 06:00:00 17,3 16,4 17,2 19,8 21,9 19,6 4 2 5 3 W 1021,7 18 0 0,0
16.08.2017 05:00:00 17,3 16,3 17,2 20,0 22,1 19,5 4 2 7 4 ZW 1021,8 47 0 0,0
16.08.2017 04:00:00 17,4 16,6 17,3 20,4 22,5 19,5 3 2 13 7 O 1021,7 50 0 0,0
16.08.2017 03:00:00 17,7 16,9 17,7 20,7 22,9 19,5 7 4 28 15 W 1021,8 54 0 8,9
16.08.2017 02:00:00 18,3 17,5 18,2 21,5 23,3 19,5 19 10 35 19 WZW 1022,4 0,7 0 0,3
16.08.2017 01:00:00 18,9 18,2 18,9 21,9 23,7 19,5 3 2 7 4 WNW 1020,4 20 0 0,0
16.08.2017 00:00:00 18,8 17,8 18,5 22,1 24,1 19,5 5 3 20 11 ONO 1019,8 32 0 1,7
15.08.2017 23:00:00 19,8 17,9 19,0 23,1 24,5 19,5 11 6 19 10 NNO 1020,1 4,9 0 4,6
15.08.2017 22:00:00 22,1 17,3 21,6 24,3 24,9 19,5 8 4 18 10 NNO 1018,9 70 0 0,0
15.08.2017 21:00:00 21,7 17,2 21,7 25,2 25,3 19,4 13 7 19 11 W 1018,2 55 0 0,0
15.08.2017 20:00:00 22,7 16,2 22,5 26,6 25,6 19,4 9 5 46 25 WNW 1016,8 66 0 0,1
15.08.2017 19:00:00 27,4 14,8 26,4 29,0 25,6 19,4 10 5 22 12 W 1016,0 70 0 0,0
15.08.2017 18:00:00 30,0 13,4 30,8 31,7 25,1 19,4 8 4 19 11 WNW 1015,1 55 60 0,0
15.08.2017 17:00:00 30,5 12,4 33,4 31,9 24,4 19,4 10 5 27 15 WNW 1015,4 60 60 0,0
15.08.2017 16:00:00 30,5 13,6 33,7 31,4 23,6 19,4 12 6 24 13 ZW 1015,5 60 60 0,0
15.08.2017 15:00:00 29,5 15,7 33,7 30,1 22,7 19,4 7 4 13 7 ZW 1016,3 60 60 0,0
15.08.2017 14:00:00 27,1 17,7 30,8 28,2 21,8 19,4 7 4 13 7 O 1016,8 60 60 0,0
15.08.2017 13:00:00 26,1 16,7 30,3 26,0 21,1 19,4 5 3 11 6 Z 1017,3 60 60 0,0
15.08.2017 12:00:00 23,8 16,6 26,6 24,0 20,6 19,4 6 4 10 6 O 1017,9 60 60 0,0
15.08.2017 11:00:00 22,5 16,4 25,8 22,4 20,1 19,4 6 3 12 6 O 1018,2 50 60 0,0

tt = temperatuur
td = dauwpunt
tt 5cm = temperatuur 5cm
tt -5cm = temperatuur -5cm
tt -20cm = temperatuur -20cm
tt -100cm = temperatuur -100cm
ff = windsnelheid
fx = windstoten
dd = windrichting
ppp = luchtdruk
vv = zicht
sd = Zonneschijnduur
rr = neerslag

Weerstations in de omgeving